Location: Cheyres
(46.8153°N, 6.7877°E)
Time: 09:42:39
(UTC+00:00)

Cosmos 990 Rocket - Pass Details

Date: 21 September 2021
Orbit: 746 x 769 km, 74.0° (Epoch: 21 October)

Event Time Altitude Azimuth Distance (km) Brightness Sun altitude
Exits shadow 20:17:57 11° 35° (NE) 2,197 6.3 -27.5°
Drops below altitude 10° 20:18:12 10° 34° (NE) 2,289 6.4 -27.6°
Sets 20:20:41 0° 28° (NNE) 3,222 7.3 -27.9°
